Погода в Большой Коклале

Россия / Республика Марий Эл     56°53′08″N   49°06′22″E
темп.,
°C
ветер,
м/с
пор.,
м/с
влажн.,
%
обл.,
%
осадки,
мм/ч
давл.,
гПа
погр.,
м
21 апреля, ср
ср2100:00+1вюв5136071 0.0 1028249
03:00+1вюв61558100 0.0 1027350
06:00+3юв81852100 0.0 1025632
09:00+6юв101743100 0.0 1024936
12:00+5ююв101751100 0.4 1023998
15:00+3ююв111871100 0.7 1022904
18:00+1ююв101988100 1.7 1021777
21:00+1ююв91796100 4.8 1020739
22 апреля, чт
чт2200:00+2ююв91696100 0.2 1019674
03:00+2ююв81596100 0.6 1019636
06:00+3ю81595100 0.3 1020731
09:00+4ю61194100 0.3 1022626
12:00+8ю687841 0.0 1022823
15:00+8ююв7128444 0.1 1022693
18:00+8ю8148796 0.1 1022661
21:00+6ю6129382 0.9 1023404
23 апреля, пт
пт2300:00+5ююз389646 0.1 1023208
03:00+5ююз359584 0.1 1025154
06:00+6ю239048 0.0 1025272
09:00+9ююв337517 0.0 1026601
12:00+12ююз225359 0.1 10251463
15:00+13юв334945 0.1 10241495
18:00+11вюв47666 0.0 1024253
21:00+7юв478150 0.0 1024126
24 апреля, сб
сб2400:00+6юв368712 0.0 1023103
03:00+5вюв479098 0.0 1022124
06:00+6вюв4988100 0.0 1021330
09:00+7в5776100 0.0 1019533
12:00+10в5662100 0.0 10171273
15:00+9вюв4673100 0.0 1015810
18:00+7вюв4686100 0.1 1014479
21:00+6вюв3693100 0.1 1013336
25 апреля, вс
вс2500:00+5вюв3796100 0.1 1011342
03:00+5юв4897100 0.1 1009342
06:00+5юв5109254 0.0 1007462
09:00+5ююв6892100 1.0 1006917
12:00+5зюз61084100 2.6 1008955
15:00+9зюз8115030 2.9 10081987
18:00+7зюз510635 0.3 1010482
21:00+3юз48805 0.3 1011157